User: anonymous   Login
Location: Caltech
(34.1382°N, 118.1253°W)
Time: 21:47:31
(UTC-07:00)
Language:

Iridium 95 - Orbit

View from above orbital plane
View from above orbital plane
View from above satellite
View from above satellite

Ground track
Ground track

The orbit data is extracted from the following two-line orbital elements,

1 27375U 02005D   17207.75389185 +.00000126 +00000-0 +37916-4 0  9993
2 27375 086.3954 270.6435 0001928 069.5165 290.6238 14.34220054816550
Epoch (UTC): 26 July 2017 18:05:36
Eccentricity: 0.0001928
inclination: 86.3954°
perigee height: 776 km
apogee height: 779 km
right ascension of ascending node: 270.6435°
argument of perigee: 69.5165°
revolutions per day: 14.34220054
mean anomaly at epoch: 290.6238°
orbit number at epoch: 81655

The dashed part of the orbit path shows where the satellite is in the earth's shadow,  

DLR